Regional Weather Roundup
Issued by NWS

Home | Current Version | Previous Version | Text Only | Print | Product List | Glossary Off
Versions: 1 2 3 4 5 6 7 8 9 10 11 12 13 14 15 16 17 18 19 20 21 22 23 24 25 26 27 28 29 30 31 32 33 34 35 36 37 38 39 40 41 42 43 44 45 46 47 48 49 50

000
ASUS43 KIND 181509
RWRIN

WEATHER ROUNDUP FOR INDIANA
NATIONAL WEATHER SERVICE INDIANAPOLIS IN
1100 AM EDT WED APR 18 2018

NOTE: "FAIR" INDICATES FEW OR NO CLOUDS BELOW 12,000 FEET WITH NO
SIGNIFICANT WEATHER AND/OR OBSTRUCTIONS TO VISIBILITY.

* - STATION DOES NOT REPORT WEATHER SUCH AS PRECIPITATION OR FOG.

+ - STATION NOT QUALITY CONTROLLED BY THE NATIONAL WEATHER SERVICE.
    USE DATA WITH CAUTION...ESPECIALLY DEWPOINT AND RELATIVE
    HUMIDITY OBSERVATIONS.

INZ001>003-010>013-019-020-181600-
NORTHWEST INDIANA

CITY           SKY/WX    TMP DP  RH WIND       PRES   REMARKS
GARY /AIRPORT/ CLOUDY    39  23  52 E15       29.82F WCI  31
KNOX *+        PTSUNNY   37  27  65 E14       29.82F WCI  29
LA PORTE +     CLOUDY    37  27  68 E13       29.82F WCI  28
MICHIGAN CITY+ CLOUDY    36  27  69 NE7       29.83F WCI  30
MONTICELLO +   CLOUDY    36  25  63 E8G16     29.79F WCI  30
RENSSELAER +   CLOUDY    36  25  64 E17       29.79F WCI  25
VALPARAISO     PTSUNNY   38  25  59 E12       29.82F WCI  30

$$

LMZ046-743>745-181600-
SOUTHERN LAKE MICHIGAN

STATION/POSITION TIME  TEMP    WIND        PRES    WAVE
                       AIR SEA DIR/SP/G            HT
                 (UTC) (F)     (DEG/KT/KT) (MB)    (FT)
BURNS HARBOR     1440   35     100/ 11/ 16 1010.5F
MICHIGAN CITY    1440   35      60/ 14/ 17   N/A

$$

INZ004-005-014>016-021>024-181600-
NORTH CENTRAL INDIANA

CITY           SKY/WX    TMP DP  RH WIND       PRES   REMARKS
ELKHART        FAIR      39  25  56 SE7       29.84S WCI  34
GOSHEN         FAIR      37  25  61 SE8       29.84S WCI  31
LOGANSPORT +   CLOUDY    36  27  69 E12       29.82F WCI  27
PERU/GRISSOM   CLOUDY    38  28  67 E12       29.79F WCI  30
ROCHESTER +    CLOUDY    37  27  65 E12       29.82F WCI  30
SOUTH BEND     FAIR      37  24  59 E10       29.84F WCI  30
WARSAW +       FAIR      36  27  69 SE10      29.83F WCI  28

$$

INZ006>009-017-018-025>027-181600-
NORTHEAST INDIANA

CITY           SKY/WX    TMP DP  RH WIND       PRES   REMARKS
ANGOLA *+      CLOUDY    32  25  74 SE8G16    29.84F WCI  25
AUBURN +       FAIR      34  27  75 SE7       29.85F WCI  28
FORT WAYNE     FAIR      37  27  67 SE9       29.85F WCI  30
HUNTINGTON +   PTSUNNY   37  25  62 SE10G16   29.83  WCI  29
KENDALLVILLE + FAIR      35  26  70 SE7       29.84F WCI  29

$$

INZ028-029-035-036-043>045-051>053-181600-
WEST CENTRAL INDIANA

CITY           SKY/WX    TMP DP  RH WIND       PRES   REMARKS
CRAWFORDSVL +  PTSUNNY   42  33  69 E14       29.74F
GREENCASTLE +  FAIR      45  32  61 SE14      29.74F
LAFAYETTE      FAIR      41  29  62 E15       29.76F
TERRE HAUTE    FAIR      49  36  61 E14       29.71F

$$

INZ030>032-037>040-046>048-054>057-064-065-181600-
CENTRAL INDIANA

CITY           SKY/WX    TMP DP  RH WIND       PRES   REMARKS
ANDERSON       SUNNY     41  30  65 E12       29.79F
COLUMBUS       SUNNY     48 N/A N/A SE10      29.77F
FISHERS *+     FAIR      45  36  70 SE10      29.77F
FRANKFORT +    FAIR      44  32  64 E14       29.78F
GREENWOOD *+   FAIR      45  32  62 E10G16    29.77F
INDIANAPOLIS   FAIR      46  31  55 E13       29.75F
-EAGLE CREEK   FAIR      45  31  58 SE12      29.75F
KOKOMO +       CLOUDY    37  28  70 E15       29.80F WCI  28
MARION +       CLOUDY    36  27  71 E14       29.80F WCI  27
MT COMFORT *+  FAIR      45  36  70 SE10      29.77F
SHELBYVILLE    FAIR      47  33  58 E16       29.76F
ZIONSVILLE +   FAIR      42  32  68 E13       29.77F

$$

INZ033-034-041-042-049-050-058-059-181600-
EAST CENTRAL INDIANA

CITY           SKY/WX    TMP DP  RH WIND       PRES   REMARKS
MUNCIE         FAIR      42  30  62 E12       29.79F
RICHMOND +     FAIR      43  34  70 SE13      29.80F

$$

INZ060-061-067>069-081>083-085>088-181600-
SOUTHWEST INDIANA

CITY           SKY/WX    TMP DP  RH WIND       PRES   REMARKS
EVANSVILLE     FAIR      59  45  59 S9        29.71F
HUNTINGBURG +  FAIR      58  44  60 S10       29.72F
WASHINGTON +   FAIR      52  37  58 SE12      29.71F

$$

INZ062-063-066-070>080-084-089>092-181600-
SOUTH CENTRAL AND SOUTHEAST INDIANA

CITY           SKY/WX    TMP DP  RH WIND       PRES   REMARKS
BATESVILLE +   SUNNY     46  34  61 MISG      29.78F
BEDFORD +      FAIR      48  32  53 SE9       29.74F
BLOOMINGTON    FAIR      50  35  56 SE10      29.73F
FRENCH LICK *+ FAIR      54  34  47 SE5       29.73F
MADISON *+     FAIR      50  32  50 E7        29.79F
NORTH VERNON + FAIR      48  32  53 SE9       29.77F
SEYMOUR +      FAIR      52  34  50 SE9       29.77F

$$





USA.gov is the U.S. government's official web portal to all federal, state and local government web resources and services.